Regional Weather Roundup
Issued by NWS Burlington, VT

Home | Current Version | Previous Version | Text Only | Print | Product List | Glossary On
Versions: 1 2 3 4 5 6 7 8 9 10 11 12 13 14 15 16 17 18 19 20 21 22 23 24 25 26 27 28 29 30 31 32 33 34 35 36 37 38 39 40 41 42 43 44 45 46 47 48 49 50
000
ASUS41 KBTV 310110
RWRBTV
VERMONT REGIONAL WEATHER ROUNDUP
NATIONAL WEATHER SERVICE BURLINGTON VT
900 PM EDT THU JUL 30 2015

NOTE: "FAIR" INDICATES FEW OR NO CLOUDS BELOW 12,000 FEET WITH NO
SIGNIFICANT WEATHER AND/OR OBSTRUCTIONS TO VISIBILITY.

* THESE REPORTS ARE NOT UNDER NWS QUALITY CONTROL AND/OR DO NOT
  REPORT WEATHER SUCH AS PRECIPITATION AND FOG.

VTZ001>019-310200-
_____VERMONT_____


CITY           SKY/WX    TMP DP  RH WIND       PRES   REMARKS
BURLINGTON     PTCLDY    76  69  79 S5        29.74R
MONTPELIER     PTCLDY    73  64  73 SW5       29.82R
MORRISVILLE    PTCLDY    74  68  81 S3        29.77R
ST. JOHNSBURY*   N/A     72  69  90 MISG      29.75R
LYNDONVILLE*   FAIR      69  68  96 SE5       29.80R FOG
MIDDLEBURY*    FAIR      70  70 100 CALM      29.77R
SPRINGFIELD    FOG       72  71  97 CALM      29.80R VSB 3/4
HIGHGATE*      FAIR      74  68  81 CALM      29.72R
NEWPORT*       FAIR      69  67  93 S5        29.77R
BENNINGTON     CLEAR     74  62  66 SW7       29.83R
SUTTON*          N/A     66 N/A N/A MISG        N/A

_____LAKE CHAMPLAIN_____


CITY           SKY/WX    TMP DP  RH WIND       PRES   REMARKS

$$

NYZ007-026>031-035-052-083-310200-
_____NORTHERN NEW YORK_____


CITY           SKY/WX    TMP DP  RH WIND       PRES   REMARKS
PLATTSBURGH    CLEAR     73  62  68 CALM      29.72R
SARANAC LAKE   CLEAR     69  58  67 SW6       29.81R
MASSENA        PTCLDY    75  61  61 SW12      29.72R
OGDENSBURG*    CLEAR     73  63  68 SW7       29.74R
POTSDAM*       PTCLDY    73  63  68 SW8       29.75R
WATERTOWN      CLEAR     74  63  68 W8        29.78R
FT DRUM        CLEAR     75  60  58 W9        29.79R
ALBANY         PTCLDY    77  60  55 W6        29.81R
GLENS FALLS    CLEAR     70  65  84 SW3       29.79R

$$
NHZ002-005-011-310200-
_____NEW HAMPSHIRE_____


CITY           SKY/WX    TMP DP  RH WIND       PRES   REMARKS
LEBANON        PTCLDY    71  69  93 CALM      29.77R FOG
KEENE          PTCLDY    73  66  78 SW3       29.80R
MT WASHINGTON  FOG       54  54 100 W52         N/A  VSB 0
PLYMOUTH       FOG       70  70 100 CALM      29.76S VSB 1/2
WHITEFIELD     FOG       69  67  93 CALM      29.78R VSB 1/2

$$

_____REGIONAL QUEBEC LOCATIONS_____


CITY           SKY/WX    TMP DP  RH WIND       PRES   REMARKS
MONTREAL       PTCLDY    77  64  65 SW14G20   29.68R
QUEBEC CITY    MOCLDY    72  70  94 SE5       29.64S
SHERBROOKE     CLEAR     70  68  94 SW3       29.73R

_____REGIONAL ONTARIO LOCATIONS_____


CITY           SKY/WX    TMP DP  RH WIND       PRES   REMARKS
OTTAWA         PTCLDY    77  54  44 W14G22    29.72R

______KEY______
VSB  - VISIBILITY IN MILES
WCI  - WIND CHILL INDEX
HX   - HEAT INDEX
$$
NNNN


USA.gov is the U.S. government's official web portal to all federal, state and local government web resources and services.